Location: Alladorf
(49.9620°N, 11.3790°E)
Time: 21:19:39
(UTC+00:00)

ARGOS Delta rocket - Pass Details

Date: 29 November 2020
Orbit: 634 x 838 km, 96.5° (Epoch: 24 January)

Event Time Altitude Azimuth Distance (km) Brightness Sun altitude
Rises 03:56:48 0° 10° (N) 3,314 7.4 -26.8°
Reaches altitude 10° 03:59:12 10° 10° (N) 2,353 6.6 -26.4°
Maximum altitude 04:04:24 83° 283° (WNW) 764 3.8 -25.6°
Enters shadow 04:04:43 78° 227° (SW) 773 3.8 -25.6°
